Estación de Nogales
Ultimos registro cada 15 minutos 90
| N° | Estación | Fecha / Hora | Temperatura | Humedad | Lluvia | Velocidad | Dirección | Radiación | Presion |
| 90 | Nogales | 01-09-2026 22:15 | 12,8 | 84,7 | 0 | 0 | 293 | 0,6 | 987,3 |
| 89 | Nogales | 01-09-2026 22:00 | 13,5 | 82,7 | 0 | 0 | 293 | 0,6 | 987,1 |
| 88 | Nogales | 01-09-2026 21:45 | 13,9 | 82,4 | 0 | 0 | 293 | 0,6 | 987,3 |
| 87 | Nogales | 01-09-2026 21:30 | 14,1 | 81,4 | 0 | 0 | 293 | 0,6 | 987,5 |
| 86 | Nogales | 01-09-2026 21:15 | 14,1 | 82,4 | 0 | 0 | 292 | 0,6 | 987,7 |
| 85 | Nogales | 01-09-2026 21:00 | 14,3 | 80,7 | 0 | 0 | 292 | 0,6 | 987,7 |
| 84 | Nogales | 01-09-2026 20:45 | 14,1 | 80,6 | 0 | 0 | 292 | 0,6 | 987,6 |
| 83 | Nogales | 01-09-2026 20:30 | 14,1 | 80,2 | 0 | 0 | 292 | 0,6 | 987,4 |
| 82 | Nogales | 01-09-2026 20:15 | 14,6 | 77,5 | 0 | 0 | 292 | 0,6 | 987,2 |
| 81 | Nogales | 01-09-2026 20:00 | 15,3 | 75,2 | 0 | 0 | 292 | 0,6 | 986,9 |
| 80 | Nogales | 01-09-2026 19:45 | 16,3 | 72 | 0 | 0 | 292 | 0,6 | 986,7 |
| 79 | Nogales | 01-09-2026 19:30 | 17 | 68,7 | 0 | 0 | 292 | 0,6 | 986,7 |
| 78 | Nogales | 01-09-2026 19:15 | 17,6 | 67,7 | 0 | 0 | 292 | 0,6 | 986,5 |
| 77 | Nogales | 01-09-2026 19:00 | 18 | 68,1 | 0 | 0 | 292 | 0,6 | 986,2 |
| 76 | Nogales | 01-09-2026 18:45 | 18,7 | 65,1 | 0 | 0,3 | 284 | 0,6 | 986,3 |
| 75 | Nogales | 01-09-2026 18:30 | 19,6 | 60,4 | 0 | 0,3 | 279 | 14,4 | 986,2 |
| 74 | Nogales | 01-09-2026 18:15 | 20,1 | 59,2 | 0 | 0,3 | 289 | 19,4 | 985,7 |
| 73 | Nogales | 01-09-2026 18:00 | 21 | 55,5 | 0 | 0 | 251 | 31,9 | 985,5 |
| 72 | Nogales | 01-09-2026 17:45 | 21,6 | 53,7 | 0 | 1 | 227 | 53,1 | 985,6 |
| 71 | Nogales | 01-09-2026 17:30 | 22,5 | 46,1 | 0 | 1,3 | 173 | 90,6 | 985,6 |
| 70 | Nogales | 01-09-2026 17:15 | 23,1 | 43,7 | 0 | 1,7 | 168 | 131,9 | 985,6 |
| 69 | Nogales | 01-09-2026 17:00 | 23,8 | 44,3 | 0 | 1,7 | 167 | 186,9 | 985,6 |
| 68 | Nogales | 01-09-2026 16:45 | 24,2 | 44,3 | 0 | 1,3 | 163 | 239,4 | 985,8 |
| 67 | Nogales | 01-09-2026 16:30 | 24,7 | 42 | 0 | 1 | 161 | 255,6 | 985,7 |
| 66 | Nogales | 01-09-2026 16:15 | 24,9 | 39,5 | 0 | 1 | 177 | 274,4 | 985,5 |
| 65 | Nogales | 01-09-2026 16:00 | 26,1 | 37,6 | 0 | 1,3 | 154 | 523,1 | 985,7 |
| 64 | Nogales | 01-09-2026 15:45 | 26,1 | 39,8 | 0 | 1 | 160 | 281,9 | 985,7 |
| 63 | Nogales | 01-09-2026 15:30 | 26,3 | 39 | 0 | 1 | 160 | 555,6 | 985,8 |
| 62 | Nogales | 01-09-2026 15:15 | 25,6 | 39,4 | 0 | 0,7 | 152 | 588,1 | 985,8 |
| 61 | Nogales | 01-09-2026 15:00 | 24,1 | 42,4 | 0 | 1 | 188 | 416,9 | 986,1 |
| 60 | Nogales | 01-09-2026 14:45 | 24,8 | 40,1 | 0 | 1,3 | 177 | 418,1 | 986,3 |
| 59 | Nogales | 01-09-2026 14:30 | 25,6 | 37,8 | 0 | 1 | 160 | 921,9 | 986,5 |
| 58 | Nogales | 01-09-2026 14:15 | 25,4 | 38,9 | 0 | 1,3 | 156 | 561,9 | 986,7 |
| 57 | Nogales | 01-09-2026 14:00 | 24,6 | 41,7 | 0 | 1,7 | 170 | 533,1 | 986,9 |
| 56 | Nogales | 01-09-2026 13:45 | 24,5 | 44,1 | 0 | 1,3 | 190 | 815,6 | 987,2 |
| 55 | Nogales | 01-09-2026 13:30 | 24,4 | 43,9 | 0 | 0,3 | 202 | 716,9 | 987,3 |
| 54 | Nogales | 01-09-2026 13:15 | 23,5 | 46 | 0 | 1 | 215 | 796,9 | 987,7 |
| 53 | Nogales | 01-09-2026 13:00 | 23,3 | 47,6 | 0 | 1 | 190 | 984,4 | 988,3 |
| 52 | Nogales | 01-09-2026 12:45 | 22,8 | 48,8 | 0 | 1 | 194 | 948,1 | 988,6 |
| 51 | Nogales | 01-09-2026 12:30 | 22,3 | 50,1 | 0 | 1 | 195 | 794,4 | 988,9 |
| 50 | Nogales | 01-09-2026 12:15 | 22,4 | 50,9 | 0 | 0,3 | 261 | 1055,6 | 989,2 |
| 49 | Nogales | 01-09-2026 12:00 | 20,8 | 55,2 | 0 | 0,3 | 241 | 1121,9 | 989,5 |
| 48 | Nogales | 01-09-2026 11:45 | 19,6 | 57 | 0 | 0,3 | 220 | 500,6 | 989,8 |
| 47 | Nogales | 01-09-2026 11:30 | 19,6 | 58,4 | 0 | 1 | 188 | 615,6 | 990 |
| 46 | Nogales | 01-09-2026 11:15 | 19,2 | 61,9 | 0 | 1 | 177 | 558,1 | 990 |
| 45 | Nogales | 01-09-2026 11:00 | 18,4 | 60,3 | 0 | 0,7 | 177 | 685,6 | 989,9 |
| 44 | Nogales | 01-09-2026 10:45 | 18,9 | 62,7 | 0 | 1 | 188 | 759,4 | 990 |
| 43 | Nogales | 01-09-2026 10:30 | 18,2 | 64,8 | 0 | 0,3 | 190 | 650,6 | 990,4 |
| 42 | Nogales | 01-09-2026 10:15 | 16,7 | 69,9 | 0 | 0 | 334 | 606,9 | 990,7 |
| 41 | Nogales | 01-09-2026 10:00 | 16 | 71,6 | 0 | 0 | 338 | 571,9 | 990,9 |
| 40 | Nogales | 01-09-2026 09:45 | 14,4 | 79,2 | 0 | 0 | 338 | 465,6 | 991 |
| 39 | Nogales | 01-09-2026 09:30 | 14,7 | 86 | 0 | 0 | 338 | 505,6 | 991,1 |
| 38 | Nogales | 01-09-2026 09:15 | 12,8 | 93,9 | 0 | 0 | 338 | 243,1 | 991,2 |
| 37 | Nogales | 01-09-2026 09:00 | 11,4 | 95,5 | 0 | 0,3 | 338 | 194,4 | 991,3 |
| 36 | Nogales | 01-09-2026 08:45 | 10,1 | 96,9 | 0 | 0 | 338 | 294,4 | 991,2 |
| 35 | Nogales | 01-09-2026 08:30 | 9,3 | 97,3 | 0 | 0 | 338 | 85,6 | 991,1 |
| 34 | Nogales | 01-09-2026 08:15 | 8,5 | 97,4 | 0 | 0 | 338 | 104,4 | 991 |
| 33 | Nogales | 01-09-2026 08:00 | 7,6 | 97,4 | 0 | 0 | 338 | 68,1 | 990,8 |
| 32 | Nogales | 01-09-2026 07:45 | 7,2 | 97,4 | 0 | 0 | 338 | 38,1 | 990,4 |
| 31 | Nogales | 01-09-2026 07:30 | 6,6 | 97,4 | 0 | 0 | 338 | 21,9 | 990,1 |
| 30 | Nogales | 01-09-2026 07:15 | 6,4 | 97,2 | 0 | 0 | 338 | 5,6 | 990,3 |
| 29 | Nogales | 01-09-2026 07:00 | 6,4 | 97,3 | 0 | 0 | 338 | 1,9 | 990,4 |
| 28 | Nogales | 01-09-2026 06:45 | 6,4 | 97,2 | 0 | 0 | 338 | 0,6 | 990,5 |
| 27 | Nogales | 01-09-2026 06:30 | 6,3 | 97,1 | 0 | 0 | 338 | 0,6 | 990,6 |
| 26 | Nogales | 01-09-2026 06:15 | 6,2 | 97,2 | 0 | 0 | 338 | 0,6 | 990,2 |
| 25 | Nogales | 01-09-2026 06:00 | 5,8 | 96,8 | 0 | 0 | 338 | 0,6 | 990,2 |
| 24 | Nogales | 01-09-2026 05:45 | 5,9 | 96,9 | 0 | 0 | 338 | 0,6 | 989,9 |
| 23 | Nogales | 01-09-2026 05:30 | 5,9 | 96,9 | 0 | 0 | 338 | 0,6 | 990 |
| 22 | Nogales | 01-09-2026 05:15 | 5,5 | 96,7 | 0 | 0 | 338 | 0,6 | 990,3 |
| 21 | Nogales | 01-09-2026 05:00 | 5,3 | 96,7 | 0 | 0 | 331 | 0,6 | 990,3 |
| 20 | Nogales | 01-09-2026 04:45 | 5,2 | 96,4 | 0 | 0 | 331 | 0,6 | 990,3 |
| 19 | Nogales | 01-09-2026 04:30 | 5,5 | 96,2 | 0 | 0 | 331 | 0,6 | 990,2 |
| 18 | Nogales | 01-09-2026 04:15 | 5,6 | 96,3 | 0 | 0 | 331 | 0,6 | 990,3 |
| 17 | Nogales | 01-09-2026 04:00 | 5,6 | 96,1 | 0 | 0 | 331 | 0,6 | 990,5 |
| 16 | Nogales | 01-09-2026 03:45 | 6 | 95,9 | 0 | 0 | 331 | 0,6 | 990,5 |
| 15 | Nogales | 01-09-2026 03:30 | 6,1 | 95,8 | 0 | 0 | 331 | 0,6 | 990,8 |
| 14 | Nogales | 01-09-2026 03:15 | 6,2 | 95,5 | 0 | 0 | 331 | 0,6 | 991,2 |
| 13 | Nogales | 01-09-2026 03:00 | 6,6 | 95,4 | 0 | 0 | 331 | 0,6 | 991,3 |
| 12 | Nogales | 01-09-2026 02:45 | 6,9 | 95,5 | 0 | 0 | 331 | 0,6 | 991,4 |
| 11 | Nogales | 01-09-2026 02:30 | 6,7 | 95 | 0 | 0 | 330 | 0,6 | 991,6 |
| 10 | Nogales | 01-09-2026 02:15 | 7 | 94,5 | 0 | 0 | 330 | 0,6 | 991,4 |
| 9 | Nogales | 01-09-2026 02:00 | 7,3 | 94,2 | 0 | 0 | 330 | 0,6 | 991,4 |
| 8 | Nogales | 01-09-2026 01:45 | 8 | 94,1 | 0 | 0 | 330 | 0,6 | 991,7 |
| 7 | Nogales | 01-09-2026 01:30 | 8,2 | 94,3 | 0 | 0 | 330 | 0,6 | 992 |
| 6 | Nogales | 01-09-2026 01:15 | 8,3 | 93,4 | 0 | 0 | 330 | 0,6 | 992,3 |
| 5 | Nogales | 01-09-2026 01:00 | 8,6 | 93,5 | 0 | 0 | 330 | 0,6 | 992,5 |
| 4 | Nogales | 01-09-2026 00:45 | 8,6 | 93,7 | 0 | 0 | 330 | 0,6 | 992,5 |
| 3 | Nogales | 01-09-2026 00:30 | 8,4 | 93,2 | 0 | 0 | 330 | 0,6 | 992,3 |
| 2 | Nogales | 01-09-2026 00:15 | 8,2 | 92,3 | 0 | 0 | 330 | 0,6 | 992,2 |
| 1 | Nogales | 01-09-2026 00:00 | 8,9 | 92,1 | 0 | 0 | 330 | 0,6 | 992,2 |